Time,TemperatureF,DewpointF,PressureIn,WindDirection,WindDirectionDegrees,WindSpeedMPH,WindSpeedGustMPH,Humidity,HourlyPrecipIn,Conditions,Clouds,dailyrainin,SoftwareType,DateUTC
2013-06-16 00:02:00,66.0,-99.9,29.92,WNW,289,9.0,-999.0,-999,-99.99,,,-99.99,,2013-06-16 04:02:00,
2013-06-16 00:12:00,66.0,-99.9,29.92,WNW,297,9.0,-999.0,-999,-99.99,,,-99.99,,2013-06-16 04:12:00,
2013-06-16 00:23:00,66.0,-99.9,29.92,WNW,297,9.0,-999.0,-999,-99.99,,,-99.99,,2013-06-16 04:23:00,
2013-06-16 00:34:00,66.0,-99.9,29.92,WNW,297,9.0,-999.0,-999,-99.99,,,-99.99,,2013-06-16 04:34:00,
2013-06-16 00:43:00,66.0,-99.9,29.92,WNW,286,7.0,-999.0,-999,-99.99,,,-99.99,,2013-06-16 04:43:00,
2013-06-16 00:53:00,66.0,-99.9,29.92,WNW,286,7.0,-999.0,-999,-99.99,,,-99.99,,2013-06-16 04:53:00,
2013-06-16 01:02:00,66.0,-99.9,29.92,WNW,286,7.0,-999.0,-999,-99.99,,,-99.99,,2013-06-16 05:02:00,
2013-06-16 01:12:00,65.0,-99.9,29.92,WNW,300,7.0,-999.0,-999,-99.99,,,-99.99,,2013-06-16 05:12:00,
2013-06-16 01:22:00,65.0,-99.9,29.92,WNW,300,7.0,-999.0,-999,-99.99,,,-99.99,,2013-06-16 05:22:00,
2013-06-16 01:34:00,65.0,-99.9,29.92,WNW,300,7.0,-999.0,-999,-99.99,,,-99.99,,2013-06-16 05:34:00,
2013-06-16 01:43:00,64.0,-99.9,29.91,NW,305,5.0,-999.0,-999,-99.99,,,-99.99,,2013-06-16 05:43:00,
2013-06-16 01:53:00,64.0,-99.9,29.91,NW,305,5.0,-999.0,-999,-99.99,,,-99.99,,2013-06-16 05:53:00,
2013-06-16 02:02:00,64.0,-99.9,29.91,NW,305,5.0,-999.0,-999,-99.99,,,-99.99,,2013-06-16 06:02:00,
2013-06-16 02:12:00,64.0,-99.9,29.90,West,265,4.0,-999.0,-999,-99.99,,,-99.99,,2013-06-16 06:12:00,
2013-06-16 02:23:00,64.0,-99.9,29.90,West,265,4.0,-999.0,-999,-99.99,,,-99.99,,2013-06-16 06:23:00,
2013-06-16 02:33:00,64.0,-99.9,29.90,West,265,4.0,-999.0,-999,-99.99,,,-99.99,,2013-06-16 06:33:00,
2013-06-16 02:43:00,64.0,-99.9,29.90,West,265,4.0,-999.0,-999,-99.99,,,-99.99,,2013-06-16 06:43:00,
2013-06-16 02:52:00,64.0,-99.9,29.91,West,276,4.0,-999.0,-999,-99.99,,,-99.99,,2013-06-16 06:52:00,
2013-06-16 03:01:00,64.0,-99.9,29.91,West,276,4.0,-999.0,-999,-99.99,,,-99.99,,2013-06-16 07:01:00,
2013-06-16 03:12:00,63.0,-99.9,29.91,West,264,3.0,-999.0,-999,-99.99,,,-99.99,,2013-06-16 07:12:00,
2013-06-16 03:23:00,63.0,-99.9,29.91,West,264,3.0,-999.0,-999,-99.99,,,-99.99,,2013-06-16 07:23:00,
2013-06-16 03:33:00,63.0,-99.9,29.91,West,264,3.0,-999.0,-999,-99.99,,,-99.99,,2013-06-16 07:33:00,
2013-06-16 03:43:00,63.0,-99.9,29.91,West,279,3.0,-999.0,-999,-99.99,,,-99.99,,2013-06-16 07:43:00,
2013-06-16 03:53:00,63.0,-99.9,29.91,West,279,3.0,-999.0,-999,-99.99,,,-99.99,,2013-06-16 07:53:00,
2013-06-16 04:02:00,63.0,-99.9,29.91,West,279,3.0,-999.0,-999,-99.99,,,-99.99,,2013-06-16 08:02:00,
2013-06-16 04:12:00,63.0,-99.9,29.91,West,268,2.0,-999.0,-999,-99.99,,,-99.99,,2013-06-16 08:12:00,
2013-06-16 04:22:00,63.0,-99.9,29.91,West,268,2.0,-999.0,-999,-99.99,,,-99.99,,2013-06-16 08:22:00,
2013-06-16 04:34:00,63.0,-99.9,29.91,West,268,2.0,-999.0,-999,-99.99,,,-99.99,,2013-06-16 08:34:00,
2013-06-16 04:44:00,61.0,-99.9,29.91,West,281,4.0,-999.0,-999,-99.99,,,-99.99,,2013-06-16 08:44:00,
2013-06-16 04:54:00,61.0,-99.9,29.91,West,281,4.0,-999.0,-999,-99.99,,,-99.99,,2013-06-16 08:54:00,
2013-06-16 05:02:00,61.0,-99.9,29.91,West,281,4.0,-999.0,-999,-99.99,,,-99.99,,2013-06-16 09:02:00,
2013-06-16 05:11:00,61.0,-99.9,29.91,West,281,4.0,-999.0,-999,-99.99,,,-99.99,,2013-06-16 09:11:00,
2013-06-16 05:22:00,61.0,-99.9,29.91,West,279,5.0,-999.0,-999,-99.99,,,-99.99,,2013-06-16 09:22:00,
2013-06-16 05:33:00,61.0,-99.9,29.91,West,279,5.0,-999.0,-999,-99.99,,,-99.99,,2013-06-16 09:33:00,
2013-06-16 05:43:00,61.0,-99.9,29.91,West,279,5.0,-999.0,-999,-99.99,,,-99.99,,2013-06-16 09:43:00,
2013-06-16 05:52:00,61.0,-99.9,29.91,WNW,288,4.0,-999.0,-999,-99.99,,,-99.99,,2013-06-16 09:52:00,
2013-06-16 06:02:00,61.0,-99.9,29.91,WNW,288,4.0,-999.0,-999,-99.99,,,-99.99,,2013-06-16 10:02:00,
2013-06-16 06:12:00,62.0,-99.9,29.91,West,267,4.0,-999.0,-999,-99.99,,,-99.99,,2013-06-16 10:12:00,
2013-06-16 06:22:00,62.0,-99.9,29.91,West,267,4.0,-999.0,-999,-99.99,,,-99.99,,2013-06-16 10:22:00,
2013-06-16 06:33:00,62.0,-99.9,29.91,West,267,4.0,-999.0,-999,-99.99,,,-99.99,,2013-06-16 10:33:00,
2013-06-16 06:43:00,64.0,-99.9,29.91,WNW,294,5.0,-999.0,-999,-99.99,,,-99.99,,2013-06-16 10:43:00,
2013-06-16 06:54:00,64.0,-99.9,29.91,WNW,294,5.0,-999.0,-999,-99.99,,,-99.99,,2013-06-16 10:54:00,
2013-06-16 07:02:00,64.0,-99.9,29.91,WNW,294,5.0,-999.0,-999,-99.99,,,-99.99,,2013-06-16 11:02:00,
2013-06-16 07:12:00,64.0,-99.9,29.91,WNW,294,5.0,-999.0,-999,-99.99,,,-99.99,,2013-06-16 11:12:00,
2013-06-16 07:22:00,67.0,-99.9,29.92,NW,316,4.0,-999.0,-999,-99.99,,,-99.99,,2013-06-16 11:22:00,
2013-06-16 07:34:00,67.0,-99.9,29.92,NW,316,4.0,-999.0,-999,-99.99,,,-99.99,,2013-06-16 11:34:00,
2013-06-16 07:43:00,69.0,-99.9,29.92,NW,322,6.0,-999.0,-999,-99.99,,,-99.99,,2013-06-16 11:43:00,
2013-06-16 07:53:00,69.0,-99.9,29.92,NW,322,6.0,-999.0,-999,-99.99,,,-99.99,,2013-06-16 11:53:00,
2013-06-16 08:02:00,69.0,-99.9,29.92,NW,322,6.0,-999.0,-999,-99.99,,,-99.99,,2013-06-16 12:02:00,
2013-06-16 08:12:00,71.0,-99.9,29.92,NW,307,9.0,-999.0,-999,-99.99,,,-99.99,,2013-06-16 12:12:00,
2013-06-16 08:22:00,71.0,-99.9,29.92,NW,307,9.0,-999.0,-999,-99.99,,,-99.99,,2013-06-16 12:22:00,
2013-06-16 08:33:00,71.0,-99.9,29.92,NW,307,9.0,-999.0,-999,-99.99,,,-99.99,,2013-06-16 12:33:00,
2013-06-16 08:43:00,72.0,-99.9,29.91,NW,312,8.0,-999.0,-999,-99.99,,,-99.99,,2013-06-16 12:43:00,
2013-06-16 08:53:00,72.0,-99.9,29.91,NW,312,8.0,-999.0,-999,-99.99,,,-99.99,,2013-06-16 12:53:00,
2013-06-16 09:02:00,72.0,-99.9,29.91,NW,312,8.0,-999.0,-999,-99.99,,,-99.99,,2013-06-16 13:02:00,
2013-06-16 09:12:00,72.0,-99.9,29.91,NW,312,8.0,-999.0,-999,-99.99,,,-99.99,,2013-06-16 13:12:00,
2013-06-16 09:22:00,73.0,-99.9,29.91,West,273,9.0,-999.0,-999,-99.99,,,-99.99,,2013-06-16 13:22:00,
2013-06-16 09:34:00,73.0,-99.9,29.91,West,273,9.0,-999.0,-999,-99.99,,,-99.99,,2013-06-16 13:34:00,
2013-06-16 09:43:00,74.0,-99.9,29.90,WNW,291,7.0,-999.0,-999,-99.99,,,-99.99,,2013-06-16 13:43:00,
2013-06-16 09:54:00,74.0,-99.9,29.90,WNW,291,7.0,-999.0,-999,-99.99,,,-99.99,,2013-06-16 13:54:00,
2013-06-16 10:02:00,74.0,-99.9,29.90,WNW,291,7.0,-999.0,-999,-99.99,,,-99.99,,2013-06-16 14:02:00,
2013-06-16 10:12:00,74.0,-99.9,29.90,WNW,282,10.0,-999.0,-999,-99.99,,,-99.99,,2013-06-16 14:12:00,
2013-06-16 10:23:00,74.0,-99.9,29.90,WNW,282,10.0,-999.0,-999,-99.99,,,-99.99,,2013-06-16 14:23:00,
2013-06-16 10:34:00,74.0,-99.9,29.90,WNW,282,10.0,-999.0,-999,-99.99,,,-99.99,,2013-06-16 14:34:00,
2013-06-16 10:44:00,74.0,-99.9,29.89,SW,223,7.0,-999.0,-999,-99.99,,,-99.99,,2013-06-16 14:44:00,
2013-06-16 10:53:00,74.0,-99.9,29.89,SW,223,7.0,-999.0,-999,-99.99,,,-99.99,,2013-06-16 14:53:00,
2013-06-16 11:02:00,74.0,-99.9,29.89,SW,223,7.0,-999.0,-999,-99.99,,,-99.99,,2013-06-16 15:02:00,
2013-06-16 11:12:00,74.0,-99.9,29.90,WSW,241,11.0,-999.0,-999,-99.99,,,-99.99,,2013-06-16 15:12:00,
2013-06-16 11:23:00,74.0,-99.9,29.90,WSW,241,11.0,-999.0,-999,-99.99,,,-99.99,,2013-06-16 15:23:00,
2013-06-16 11:34:00,74.0,-99.9,29.90,WSW,241,11.0,-999.0,-999,-99.99,,,-99.99,,2013-06-16 15:34:00,
2013-06-16 11:43:00,74.0,-99.9,29.89,West,270,10.0,-999.0,-999,-99.99,,,-99.99,,2013-06-16 15:43:00,
2013-06-16 11:53:00,74.0,-99.9,29.89,West,270,10.0,-999.0,-999,-99.99,,,-99.99,,2013-06-16 15:53:00,
2013-06-16 12:02:00,74.0,-99.9,29.89,West,270,10.0,-999.0,-999,-99.99,,,-99.99,,2013-06-16 16:02:00,
2013-06-16 12:12:00,73.0,-99.9,29.88,WSW,245,13.0,-999.0,-999,-99.99,,,-99.99,,2013-06-16 16:12:00,
2013-06-16 12:23:00,73.0,-99.9,29.88,WSW,245,13.0,-999.0,-999,-99.99,,,-99.99,,2013-06-16 16:23:00,
2013-06-16 12:33:00,73.0,-99.9,29.88,WSW,245,13.0,-999.0,-999,-99.99,,,-99.99,,2013-06-16 16:33:00,
2013-06-16 12:43:00,72.0,-99.9,29.86,SW,231,10.0,-999.0,-999,-99.99,,,-99.99,,2013-06-16 16:43:00,
2013-06-16 12:53:00,72.0,-99.9,29.86,SW,231,10.0,-999.0,-999,-99.99,,,-99.99,,2013-06-16 16:53:00,
2013-06-16 13:02:00,72.0,-99.9,29.86,SW,231,10.0,-999.0,-999,-99.99,,,-99.99,,2013-06-16 17:02:00,
2013-06-16 13:12:00,71.0,-99.9,29.86,SW,223,10.0,-999.0,-999,-99.99,,,-99.99,,2013-06-16 17:12:00,
2013-06-16 13:22:00,71.0,-99.9,29.86,SW,223,10.0,-999.0,-999,-99.99,,,-99.99,,2013-06-16 17:22:00,
2013-06-16 13:34:00,71.0,-99.9,29.86,SW,223,10.0,-999.0,-999,-99.99,,,-99.99,,2013-06-16 17:34:00,
2013-06-16 13:43:00,72.0,-99.9,29.85,WSW,256,8.0,-999.0,-999,-99.99,,,-99.99,,2013-06-16 17:43:00,
2013-06-16 13:53:00,72.0,-99.9,29.85,WSW,256,8.0,-999.0,-999,-99.99,,,-99.99,,2013-06-16 17:53:00,
2013-06-16 14:02:00,72.0,-99.9,29.85,WSW,256,8.0,-999.0,-999,-99.99,,,-99.99,,2013-06-16 18:02:00,
2013-06-16 14:12:00,73.0,-99.9,29.83,WSW,254,13.0,-999.0,-999,-99.99,,,-99.99,,2013-06-16 18:12:00,
2013-06-16 14:23:00,73.0,-99.9,29.83,WSW,254,13.0,-999.0,-999,-99.99,,,-99.99,,2013-06-16 18:23:00,
2013-06-16 14:34:00,73.0,-99.9,29.83,WSW,254,13.0,-999.0,-999,-99.99,,,-99.99,,2013-06-16 18:34:00,
2013-06-16 14:43:00,72.0,-99.9,29.83,SW,227,10.0,-999.0,-999,-99.99,,,-99.99,,2013-06-16 18:43:00,
2013-06-16 14:53:00,72.0,-99.9,29.83,SW,227,10.0,-999.0,-999,-99.99,,,-99.99,,2013-06-16 18:53:00,
2013-06-16 15:02:00,72.0,-99.9,29.83,SW,227,10.0,-999.0,-999,-99.99,,,-99.99,,2013-06-16 19:02:00,
2013-06-16 15:12:00,69.0,-99.9,29.81,SW,229,12.0,-999.0,-999,-99.99,,,-99.99,,2013-06-16 19:12:00,
2013-06-16 15:22:00,69.0,-99.9,29.81,SW,229,12.0,-999.0,-999,-99.99,,,-99.99,,2013-06-16 19:22:00,
2013-06-16 15:34:00,69.0,-99.9,29.81,SW,229,12.0,-999.0,-999,-99.99,,,-99.99,,2013-06-16 19:34:00,
2013-06-16 15:43:00,68.0,-99.9,29.80,SW,232,14.0,-999.0,-999,-99.99,,,-99.99,,2013-06-16 19:43:00,
2013-06-16 15:54:00,68.0,-99.9,29.80,SW,232,14.0,-999.0,-999,-99.99,,,-99.99,,2013-06-16 19:54:00,
2013-06-16 16:02:00,68.0,-99.9,29.80,SW,232,14.0,-999.0,-999,-99.99,,,-99.99,,2013-06-16 20:02:00,
2013-06-16 16:12:00,69.0,-99.9,29.79,SW,225,11.0,-999.0,-999,-99.99,,,-99.99,,2013-06-16 20:12:00,
2013-06-16 16:22:00,69.0,-99.9,29.79,SW,225,11.0,-999.0,-999,-99.99,,,-99.99,,2013-06-16 20:22:00,
2013-06-16 16:30:00,68.0,-99.9,29.78,WSW,237,12.0,-999.0,-999,-99.99,,,-99.99,,2013-06-16 20:30:00,
2013-06-16 16:34:00,69.0,-99.9,29.79,SW,225,11.0,-999.0,-999,-99.99,,,-99.99,,2013-06-16 20:34:00,
2013-06-16 16:43:00,68.0,-99.9,29.78,WSW,237,12.0,-999.0,-999,-99.99,,,-99.99,,2013-06-16 20:43:00,
2013-06-16 16:53:00,68.0,-99.9,29.78,WSW,237,12.0,-999.0,-999,-99.99,,,-99.99,,2013-06-16 20:53:00,
2013-06-16 17:00:00,67.0,-99.9,29.77,WSW,247,16.0,-999.0,-999,-99.99,,,-99.99,,2013-06-16 21:00:00,
2013-06-16 17:02:00,68.0,-99.9,29.78,WSW,237,12.0,-999.0,-999,-99.99,,,-99.99,,2013-06-16 21:02:00,
2013-06-16 17:11:00,68.0,-99.9,29.78,WSW,237,12.0,-999.0,-999,-99.99,,,-99.99,,2013-06-16 21:11:00,
2013-06-16 17:22:00,68.0,-99.9,29.78,WSW,237,12.0,-999.0,-999,-99.99,,,-99.99,,2013-06-16 21:22:00,
2013-06-16 17:42:00,67.0,-99.9,29.77,WSW,247,16.0,-999.0,-999,-99.99,,,-99.99,,2013-06-16 21:42:00,
2013-06-16 17:53:00,67.0,-99.9,29.77,WSW,247,16.0,-999.0,-999,-99.99,,,-99.99,,2013-06-16 21:53:00,
2013-06-16 20:00:00,66.0,-99.9,29.73,WSW,257,14.0,-999.0,-999,-99.99,,,-99.99,,2013-06-17 00:00:00,
2013-06-16 21:12:00,66.0,-99.9,29.73,WSW,254,15.0,-999.0,-999,-99.99,,,-99.99,,2013-06-17 01:12:00,
2013-06-16 21:22:00,66.0,-99.9,29.73,WSW,254,15.0,-999.0,-999,-99.99,,,-99.99,,2013-06-17 01:22:00,
2013-06-16 21:32:00,66.0,-99.9,29.74,WSW,258,10.0,-999.0,-999,-99.99,,,-99.99,,2013-06-17 01:32:00,
2013-06-16 21:43:00,66.0,-99.9,29.74,WSW,258,10.0,-999.0,-999,-99.99,,,-99.99,,2013-06-17 01:43:00,
2013-06-16 21:53:00,66.0,-99.9,29.74,West,271,12.0,-999.0,-999,-99.99,,,-99.99,,2013-06-17 01:53:00,
2013-06-16 22:03:00,66.0,-99.9,29.74,West,271,12.0,-999.0,-999,-99.99,,,-99.99,,2013-06-17 02:03:00,
2013-06-16 22:12:00,66.0,-99.9,29.74,West,272,9.0,-999.0,-999,-99.99,,,-99.99,,2013-06-17 02:12:00,
2013-06-16 22:22:00,66.0,-99.9,29.74,West,272,9.0,-999.0,-999,-99.99,,,-99.99,,2013-06-17 02:22:00,
2013-06-16 22:34:00,66.0,-99.9,29.74,West,272,9.0,-999.0,-999,-99.99,,,-99.99,,2013-06-17 02:34:00,
2013-06-16 22:43:00,67.0,-99.9,29.74,WNW,282,8.0,-999.0,-999,-99.99,,,-99.99,,2013-06-17 02:43:00,
2013-06-16 22:53:00,67.0,-99.9,29.74,WNW,282,8.0,-999.0,-999,-99.99,,,-99.99,,2013-06-17 02:53:00,
2013-06-16 23:02:00,67.0,-99.9,29.74,WNW,282,8.0,-999.0,-999,-99.99,,,-99.99,,2013-06-17 03:02:00,
2013-06-16 23:12:00,68.0,-99.9,29.75,WNW,286,5.0,-999.0,-999,-99.99,,,-99.99,,2013-06-17 03:12:00,
2013-06-16 23:22:00,68.0,-99.9,29.75,WNW,286,5.0,-999.0,-999,-99.99,,,-99.99,,2013-06-17 03:22:00,
2013-06-16 23:33:00,68.0,-99.9,29.75,WNW,286,5.0,-999.0,-999,-99.99,,,-99.99,,2013-06-17 03:33:00,
2013-06-16 23:44:00,68.0,-99.9,29.75,WNW,295,9.0,-999.0,-999,-99.99,,,-99.99,,2013-06-17 03:44:00,
2013-06-16 23:54:00,68.0,-99.9,29.75,WNW,295,9.0,-999.0,-999,-99.99,,,-99.99,,2013-06-17 03:54:00,